Location: Anne Acres
(38.7004°N, 75.0827°W)
Time: 07:32:38
(UTC+00:00)

Envisat - Pass Details

Date: 06 October 2024
Orbit: 762 x 763 km, 98.3° (Epoch: 03 November)

Event Time Altitude Azimuth Distance (km) Brightness Sun altitude
Rises 09:14:02 0° 358° (N) 3,233 6.3 -21.7°
Reaches altitude 10° 09:16:47 10° 343° (NNW) 2,303 5.4 -21.1°
Enters shadow 09:18:49 18° 322° (NW) 1,799 4.6 -20.8°
